Showing default

HULIANWANG DIGUI-09, 62331

Orbit data source: Space-Track

HULIANWANG DIGUI-09, 62331 is a payload satellite owned by Zhongguo Xingwang (CN) in LEO that was launched on Mon, 16 Dec 2024 UTC via a CHANG ZHENG 5B/YZ-2 launch vehicle from the Wenchang Satellite Launch Center (WSC). Payload-class satellites include a variety of spacecraft equipped with specific instruments for various scientific and technological missions. These include communications satellites like Starlink; space stations such as the ISS; scientific satellites like the Hubble; Earth observation satellites from companies like Planet Labs, Umbra, and HawkEye 360; GPS; miniature CubeSats for education and research; and military/defense satellites.

Loading next visibility...
Identifier
62331, 2024-240J
Orbit
LEO
Country
Flag of CNCN / PRC
Related business
Manufacturer
CAST?
Mission
Operational Civil Communications
Bus & Motor
XINGWANG CL, Unknown motor
Mass
~800 kg wet, ~800 kg dry
Launch date (UTC)
2024-12-16 (1 year ago)
Launch vehicle
CHANG ZHENG 5B/YZ-2
Launch site
Wenchang Satellite Launch Center (WSC)
Object type
Payload
Rocket body
Debris
Shape & HBR
Box + 2 Pan, 5.0 m
Radar Cross Section
5.935 m², Large (>1 m²)

Expand to show TLE details & history
Last TLE update: 6 hours ago

TLE from 6 hours ago
0 HULIANWANG DIGUI-09
1 62331U 24240J   26061.80010649  .00000034  00000-0  45626-4 0  9994
2 62331  86.5026  19.1273 0001944  90.0949 270.0407 13.24422089 58554
Epoch: 2026-03-02T19:12Z
TLE epoch observation values (Epoch: 2026-03-02T19:12:09.200Z)
Latitude
-0.00012°
Longitude
-69.49936°
Altitude
1,170.77 km
Speed
7.268 km/s
True Right ascension
01h 16m 30s
True Declination
0° 00' 00"
Sunlit
Object was in daylight at epoch
Visualization orbit readout
Latitude
Unknown
Longitude
Unknown
Altitude
Unknown
Speed
Unknown
Apparent Right ascension
Unknown
Apparent Declination
Unknown
Sunlit
N/A
Visualization observer readout
Local Sidereal Time
04:51:31
Azimuth
Unknown
Elevation
Unknown
Doppler factor
Unknown
Orbital elements
Apogee altitude
1,166.462 km
Perigee altitude
1,163.53 km
Semi-major axis
7,543.133 km
Eccentricity
0.00019
Inclination
86.5026°
RAAN
19.1273°
Arg. of periapsis
90.0949°
True anomaly
270.01842°
Mean anomaly
270.0407°
Eccentric anomaly
270.02956°
Mean motion
3.31295 °/min
Orbital period
108.66 mins
BSTAR
0.000045626
Loading maneuver chart data...
Computing Atmospheric mass density...
Loading historical data...
Loading historical data...
Loading historical data...
Loading historical data...
Loading historical data...
Loading historical data...
Loading historical data...

Documentation

Showing up to 5 results
|